Regional Weather Roundup
Issued by NWS

Home | Current Version | Previous Version | Text Only | Print | Product List | Glossary Off
Versions: 1 2 3 4 5 6 7 8 9 10 11 12 13 14 15 16 17 18 19 20 21 22 23 24 25 26 27 28 29 30 31 32 33 34 35 36 37 38 39 40 41 42 43 44 45 46 47 48 49 50

000
ASUS43 KLOT 010512
RWRIL

ILLINOIS REGIONAL WEATHER ROUNDUP
NATIONAL WEATHER SERVICE CHICAGO/ROMEOVILLE IL
1200 AM CDT WED JUL 01 2015

NOTE: "FAIR" INDICATES FEW OR NO CLOUDS BELOW 12,000 FEET WITH NO
SIGNIFICANT WEATHER AND/OR OBSTRUCTIONS TO VISIBILITY.

* THESE STATIONS ARE NOT UNDER NWS QUALITY CONTROL. THEY ALSO MAY NOT
  REPORT WEATHER SUCH AS PRECIPITATION OR FOG.

ILZ001-002-007-009-015-016-024-010600-
NORTHWEST ILLINOIS

CITY           SKY/WX    TMP DP  RH WIND       PRES   REMARKS
MOLINE         NOT AVBL
SAVANNA*       PTCLDY    65  60  84 N3        29.90S
$$

ILZ003-004-008-010-011-017-018-010600-
NORTH CENTRAL ILLINOIS

CITY           SKY/WX    TMP DP  RH WIND       PRES   REMARKS
ROCKFORD       NOT AVBL
FREEPORT*      CLOUDY    63  58  84 N3        29.92S
ROCHELLE*      MOCLDY    62  61  96 E8        29.91R FOG
DE KALB*       MOCLDY    58  55  90 E7        29.92S
PERU*          CLEAR     64  61  88 CALM      29.90S
$$

ILZ005-006-012>014-019>023-010600-
NORTHEAST ILLINOIS

CITY           SKY/WX    TMP DP  RH WIND       PRES   REMARKS
CHICAGO-OHARE  NOT AVBL
CHICAGO-MIDWAY NOT AVBL
AURORA         NOT AVBL
LANSING*       PTCLDY    58  54  85 NE5       29.92S
JOLIET*        PTCLDY    61  58  88 E5        29.91S
WAUKEGAN       NOT AVBL
DUPAGE AIRPORT NOT AVBL
KANKAKEE*      CLEAR     60  59  96 NE6       29.91F
WHEELING       NOT AVBL
MORRIS*        CLEAR     62  59  89 E6        29.89S
ROMEOVILLE*    PTCLDY    59  56  89 E7        29.91S
NORTHERLY ISL    N/A     58  54  86 N7          N/A
$$

LMZ740>746-010600-
SOUTHERN LAKE MICHIGAN

STATION/POSITION SKY/WX   TEMP    WIND        PRES    VSBY  WAVE
                          AIR SEA DIR/SP/G                  HT/PER
                          (F)     (DEG/KT/KT) (MB)    (MI)  (FT/S)
HARRISON CRIB              58      10/ 11/ 14   N/A
BURNHAM HARBOR             58     360/  9/ 11   N/A
CALUMET HARBOR             59     350/  5/  8   N/A
BURNS HARBOR               62      10/  5/  8 1013.5R
MICHIGAN CITY              61     360/  8/  9   N/A
MICHIGAN CITY 6N           60 65  340/  8/ 10   N/A           2/ 4
ST. JOSEPH                 63 64                N/A           5/ 5
$$

ILZ025>027-034>036-040-047-049-050-058-095>099-010600-
WEST-CENTRAL ILLINOIS

CITY           SKY/WX    TMP DP  RH WIND       PRES   REMARKS
GALESBURG*     PTCLDY    68  63  83 CALM      29.90S
MACOMB*        MOCLDY    67  67  99 CALM      29.90F FOG
JACKSONVILLE*  MOCLDY    71  69  95 CALM      29.89S
PITTSFIELD*    CLOUDY    70  67  89 CALM      29.91S
$$

ILZ028>032-037-038-041>044-048-051>054-059>061-010600-
CENTRAL ILLINOIS

CITY           SKY/WX    TMP DP  RH WIND       PRES   REMARKS
PONTIAC        CLEAR     64  63  97 E5        29.91S FOG
BLOOMINGTON    PTCLDY    68  64  86 E5        29.91S
PEORIA         NOT AVBL
LACON*         CLEAR     64  62  92 CALM      29.89S
LINCOLN*       PTCLDY    68  64  86 CALM      29.89F
SPRINGFIELD    PTCLDY    70  68  93 CALM      29.89S FOG
TAYLORVILLE    PTCLDY    66  64  94 CALM      29.90R FOG
$$

ILZ033-039-045-046-055>057-062-063-010600-
EAST-CENTRAL ILLINOIS

CITY           SKY/WX    TMP DP  RH WIND       PRES   REMARKS
DANVILLE*      CLOUDY    63  62  97 N3        29.87F FOG
RANTOUL*       CLEAR     69  64  84 N3        29.90S
MATTOON        FOG       67  66  97 CALM      29.89S VSB 1/4
PARIS*         PTCLDY    65  64  96 CALM      29.90S
$$

ILZ079-100>102-010600-
SOUTHWEST ILLINOIS

CITY           SKY/WX    TMP DP  RH WIND       PRES   REMARKS
ALTON          PTCLDY    69  69 100 CALM      29.91S
BELLEVILLE     PTCLDY    72  71  99 CALM      29.89S
SPARTA*        PTCLDY    73  70  88 CALM      29.92S
$$

ILZ064>066-069>071-074>076-080>082-084>086-088>090-092>094-010600-
SOUTH-CENTRAL ILLINOIS

CITY           SKY/WX    TMP DP  RH WIND       PRES   REMARKS
CARBONDALE     NOT AVBL
CAIRO*         PTCLDY    77  71  81 SW3       29.93R
EFFINGHAM*     PTCLDY    69  66  88 CALM      29.91S
MARION         MOCLDY    72  70  94 S5        29.92S
CENTRALIA*     MOCLDY    69  66  91 CALM      29.91S
SALEM*         MOCLDY    70  67  90 CALM      29.91R
METROPOLIS*    PTCLDY    74  73  98 CALM      29.93S
$$

ILZ067-068-072-073-078-083-087-091-010600-
SOUTHEAST ILLINOIS

CITY           SKY/WX    TMP DP  RH WIND       PRES   REMARKS
FLORA*         MOCLDY    71  67  89 W3        29.90S
FAIRFIELD*     MOCLDY    70  69  95 CALM      29.89S
HARRISBURG*    CLOUDY    72  71  99 CALM      29.92S
ROBINSON*      MOCLDY    68  67  97 CALM      29.90R
CARMI*         MOCLDY    73  65  76 SW6       29.90R
$$

ABBREVIATIONS USED IN REMARKS
   TC - TEMPERATURE IN CELSIUS
  WCI - WIND CHILL INDEX
   HX - HEAT INDEX
  VSB - VISIBILITY
$$



USA.gov is the U.S. government's official web portal to all federal, state and local government web resources and services.